Wind_Speed
22 15 20 23 22 21 19 17 21 18 20 16 21 19 21 21 23 23 24 27 29 32 33 31 31 30 29 27 26 26 25 24 23 19 18 16 15 14 12 10 8 7 6 5
14 21 20 19 18 21 22 15 15 19 14 16 18 21 15 17 20 24 25 25 28 30 33 34 33 32 32 30 28 28 28 27 26 21 19 16 15 14 12 10 9 9 7 7
22 11 21 21 20 19 20 20 16 15 12 11 19 21 22 17 24 22 23 23 26 30 35 36 36 35 34 33 32 31 31 29 27 22 20 18 17 15 13 14 10 10 9 7
21 22 11 22 23 21 20 18 19 18 17 15 20 16 21 18 18 20 25 25 27 31 33 36 37 36 37 36 33 32 33 32 28 29 22 22 20 18 16 14 12 12 11 9
16 18 24 20 21 21 19 16 19 19 17 17 20 18 18 26 24 24 23 28 28 31 34 37 40 39 38 36 35 34 35 35 31 33 25 25 22 18 16 15 16 15 12 12
17 19 17 23 19 16 18 18 19 16 16 18 23 22 21 18 30 25 27 28 30 32 34 35 36 36 36 36 35 34 36 38 37 35 34 29 26 22 19 18 16 16 13 13
19 20 19 13 17 23 17 20 14 14 16 18 24 24 20 20 22 28 26 33 32 32 33 35 36 38 38 40 40 38 40 41 42 40 38 36 31 28 21 19 19 17 15 14
14 16 22 19 22 21 27 22 15 26 16 19 24 25 23 25 21 28 33 36 35 32 34 35 37 39 41 43 43 42 42 43 44 45 42 41 39 28 25 24 20 19 17 15
11 23 2 5 18 22 22 26 26 27 23 20 20 27 22 26 27 25 14 29 36 37 33 35 37 38 39 41 45 47 45 46 45 47 47 44 42 38 28 26 26 20 20 15
8 13 12 10 9 16 22 17 23 19 25 25 20 24 19 24 20 27 19 16 27 39 36 35 36 38 38 39 42 44 44 44 46 45 47 46 45 41 37 31 27 26 21 22
14 8 17 11 12 20 17 21 15 18 23 19 17 15 14 23 22 21 26 25 26 26 34 35 35 36 38 37 37 41 44 43 43 42 43 46 45 40 41 37 36 30 27 24
10 11 15 19 16 22 26 20 27 15 21 21 19 12 11 16 20 21 25 35 34 29 29 33 32 34 36 38 38 39 41 43 42 42 45 46 45 43 38 45 37 31 30 29
11 10 13 16 14 16 14 18 18 20 23 22 20 19 4 5 6 8 22 27 30 34 30 29 31 33 34 37 39 40 41 42 41 41 44 43 45 45 43 42 44 37 32 32
4 13 16 14 7 11 18 23 13 20 17 23 20 22 20 8 8 1 7 9 27 25 29 35 34 33 35 36 40 41 41 40 40 39 40 44 46 47 47 44 41 41 37 35
11 17 18 19 16 14 16 8 13 19 20 17 18 20 20 11 10 11 3 5 7 5 6 15 22 25 29 35 38 41 42 41 41 44 43 45 47 46 45 44 42 41 40 38
13 15 16 18 21 14 17 16 17 18 20 20 21 23 24 22 22 19 4 8 3 6 7 7 17 24 26 29 34 37 44 43 43 44 46 44 44 45 46 47 46 44 42 39
12 10 13 17 17 19 20 22 21 21 21 21 22 24 22 19 18 23 6 4 10 12 11 9 10 12 20 27 31 36 42 43 42 42 44 43 43 45 46 47 46 45 43 41
8 11 10 9 12 16 14 16 18 16 17 24 25 24 26 28 31 37 24 6 13 15 13 13 14 15 16 22 27 30 33 43 43 47 42 44 43 45 45 46 47 46 45 43
17 12 6 8 14 15 19 10 4 5 13 19 19 21 30 36 31 36 25 24 16 18 18 17 16 16 17 20 24 28 34 38 44 44 48 47 47 44 43 47 49 47 46 44
21 18 9 11 15 19 17 12 3 6 15 18 24 22 19 31 18 15 20 9 13 17 18 19 18 18 20 22 24 29 35 38 45 48 51 47 45 45 45 48 48 48 47 46
5 8 16 15 14 12 16 10 4 9 5 28 32 14 13 13 18 19 9 10 9 13 15 15 17 18 22 23 25 29 35 42 44 40 38 40 43 43 42 41 43 48 48 36
6 6 10 15 19 19 7 5 9 7 12 23 26 20 13 14 5 6 7 8 8 9 9 8 9 11 10 19 26 33 33 37 34 37 37 38 39 39 36 39 39 42 44 42
4 5 5 5 6 9 9 13 19 15 14 30 30 16 14 6 1 5 5 6 6 7 9 7 6 9 4 5 14 24 24 32 31 35 34 36 36 37 35 37 38 35 36 33
3 7 4 7 4 16 27 32 25 26 22 27 22 13 11 7 4 2 4 6 9 7 8 10 9 12 9 7 11 15 16 24 31 35 33 34 36 37 36 31 30 30 30 29
4 4 4 4 9 21 17 15 24 32 22 25 10 6 5 5 3 5 4 7 8 10 11 10 11 12 11 9 9 11 20 22 28 29 31 33 31 34 37 31 29 29 29 29
7 4 3 2 11 9 11 20 27 7 9 6 5 3 2 2 2 3 7 7 8 10 11 13 14 14 11 11 10 11 18 20 24 27 29 30 30 30 31 31 30 29 29 30
Wind_Direction
198 214 215 214 223 238 262 226 233 234 215 205 228 214 148 184 174 168 172 177 184 188 190 189 191 191 190 191 190 190 190 191 189 186 185 186 189 182 184 184 188 203 179 197
200 226 228 229 225 233 252 256 252 241 214 212 215 236 169 181 183 175 179 180 185 187 187 191 193 194 194 193 193 194 192 195 193 188 187 187 185 187 194 197 206 194 194 196
230 222 219 236 230 237 229 240 239 251 225 247 241 234 214 184 184 185 186 187 188 188 188 192 195 196 195 196 196 197 194 198 197 189 188 189 191 194 198 199 211 202 195 199
229 244 243 217 232 228 235 220 255 253 249 223 219 238 217 170 201 188 188 190 189 190 194 193 196 198 199 199 198 199 199 198 201 183 195 193 189 193 196 199 202 203 194 197
232 229 240 226 234 229 241 240 222 245 249 248 238 226 245 189 208 186 195 190 198 191 193 194 198 200 200 199 200 200 203 202 199 198 191 200 191 199 196 193 196 194 204 192
262 262 237 241 229 236 236 242 250 235 234 239 235 244 225 214 199 212 183 196 198 194 195 198 199 198 200 201 202 202 204 206 204 209 194 200 202 195 202 199 199 200 203 203
232 237 250 243 250 222 216 224 223 225 220 233 224 231 241 219 228 206 194 191 197 200 196 199 197 197 199 200 202 202 204 208 211 210 209 201 200 195 202 206 202 202 205 209
278 226 214 214 230 233 212 224 224 218 216 227 230 225 225 245 252 230 217 188 193 200 197 201 200 200 200 200 200 201 203 210 213 210 215 212 212 207 201 206 206 207 210 214
256 240 230 267 213 238 231 216 242 256 238 237 215 220 235 215 234 249 264 195 188 192 201 201 203 204 203 202 202 202 203 208 214 213 214 218 217 212 210 208 209 208 213 212
285 275 261 200 234 268 260 258 221 236 248 253 236 222 208 210 216 224 226 233 197 196 190 203 203 205 206 206 206 205 205 207 212 209 214 216 220 219 208 208 212 210 211 212
279 250 256 206 203 231 224 246 255 247 231 245 246 234 232 196 199 221 218 207 229 218 190 201 203 205 206 207 207 208 207 207 210 210 209 213 218 219 216 211 214 209 214 214
244 268 247 241 221 226 244 246 232 239 228 234 253 239 289 201 185 205 231 219 219 224 215 202 205 203 203 206 207 208 208 208 211 209 207 213 214 215 216 214 212 219 216 222
276 230 249 250 259 252 243 237 255 255 246 232 227 240 75 64 140 243 202 227 219 226 213 211 203 198 201 205 207 208 209 210 209 209 210 210 208 213 215 216 218 219 224 227
278 264 268 259 329 331 233 237 245 264 239 239 247 228 224 167 164 149 279 250 222 221 226 212 207 200 199 205 206 207 209 209 208 209 208 209 210 212 217 216 220 221 222 228
243 253 260 266 276 282 292 272 232 254 261 268 252 241 259 247 223 219 281 279 255 211 257 238 222 220 200 200 203 205 209 208 207 207 208 210 212 211 212 215 218 223 223 228
230 261 274 266 273 246 254 246 250 253 254 266 274 277 277 321 319 320 220 305 296 294 256 245 235 233 219 211 202 207 205 208 206 206 207 208 209 210 209 216 220 221 221 224
284 259 261 255 250 246 241 239 240 244 247 251 250 253 270 279 280 291 291 327 298 283 273 272 265 239 225 217 210 210 208 206 207 209 208 206 208 209 209 215 219 221 221 221
226 259 253 264 254 253 256 243 240 261 273 238 246 257 259 261 261 269 279 254 277 284 283 271 259 250 236 224 218 213 211 206 207 208 210 208 208 210 209 213 218 220 222 222
235 217 261 245 253 248 255 250 16 359 273 291 281 266 235 257 268 266 270 272 258 271 276 276 270 258 249 238 221 210 208 208 207 208 208 209 208 209 208 212 218 220 222 225
234 216 206 255 243 249 249 87 70 296 265 269 260 254 231 235 249 261 285 296 270 271 275 279 279 272 256 239 223 214 208 207 207 209 210 208 206 209 209 216 216 221 224 227
227 253 223 230 251 256 276 90 321 254 277 336 327 316 222 246 266 290 314 299 299 293 286 282 287 285 265 237 223 222 210 210 212 209 209 209 208 210 211 211 213 220 224 218
258 220 223 236 246 245 348 277 251 324 307 323 309 319 305 273 348 316 318 324 337 332 310 309 305 310 318 238 222 222 217 209 207 205 206 207 207 208 212 209 213 216 220 220
287 353 290 274 254 357 308 293 293 287 279 280 295 298 318 323 358 10 357 360 8 358 360 6 3 4 70 141 213 212 213 197 199 198 203 204 204 205 203 210 211 211 215 212
292 322 281 313 335 341 311 293 289 266 251 257 276 290 305 290 349 44 7 30 36 18 11 22 21 33 53 98 139 161 192 193 198 199 201 201 201 201 195 207 207 205 208 210
264 285 282 277 306 294 275 280 287 261 256 260 244 277 299 318 340 331 5 38 43 41 41 35 34 37 66 77 115 160 181 191 199 198 199 199 199 201 198 198 201 206 209 212
350 345 337 305 314 329 312 325 326 161 198 162 187 128 40 34 336 36 31 39 52 46 42 45 45 47 53 96 99 142 185 181 193 197 196 198 192 197 196 194 196 199 207 211
Height
1487 1486 1476 1471 1469 1466 1453 1455 1460 1444 1446 1456 1459 1455 1463 1465 1474 1482 1489 1497 1504 1511 1519 1526 1532 1538 1543 1548 1553 1557 1562 1565 1568 1573 1577 1581 1583 1586 1588 1590 1591 1591 1593 1594
1476 1475 1469 1468 1466 1468 1464 1462 1455 1447 1440 1447 1452 1455 1457 1462 1467 1475 1483 1492 1499 1506 1514 1521 1528 1533 1539 1544 1549 1554 1558 1562 1566 1571 1575 1579 1582 1585 1587 1589 1590 1592 1593 1594
1467 1461 1466 1466 1466 1467 1466 1465 1461 1459 1447 1450 1452 1453 1449 1463 1463 1469 1478 1487 1494 1500 1506 1516 1523 1528 1534 1539 1545 1549 1554 1558 1562 1568 1573 1577 1581 1583 1586 1587 1589 1591 1593 1595
1461 1459 1460 1464 1464 1463 1467 1461 1462 1460 1459 1465 1452 1471 1446 1452 1457 1462 1472 1480 1486 1494 1502 1509 1517 1523 1527 1533 1540 1545 1549 1554 1558 1564 1569 1573 1577 1580 1583 1586 1588 1590 1592 1594
1458 1460 1461 1461 1460 1460 1464 1459 1462 1463 1462 1460 1454 1463 1434 1438 1459 1451 1461 1472 1480 1487 1494 1500 1507 1514 1521 1529 1534 1540 1544 1549 1554 1558 1565 1570 1574 1578 1581 1583 1585 1588 1589 1592
1460 1453 1454 1454 1455 1459 1464 1465 1461 1458 1464 1475 1458 1452 1443 1436 1436 1446 1447 1461 1473 1479 1487 1494 1501 1509 1517 1524 1530 1535 1539 1542 1548 1553 1559 1565 1569 1574 1578 1581 1583 1585 1588 1589
1457 1456 1454 1456 1456 1455 1462 1464 1477 1481 1473 1469 1444 1452 1436 1420 1423 1426 1435 1449 1463 1471 1479 1487 1494 1501 1508 1515 1521 1527 1531 1535 1541 1547 1553 1558 1564 1569 1573 1577 1581 1583 1585 1587
1457 1453 1447 1449 1454 1449 1452 1452 1459 1476 1462 1453 1438 1443 1432 1423 1420 1425 1424 1435 1450 1464 1471 1480 1486 1492 1499 1506 1512 1519 1524 1527 1533 1540 1546 1552 1558 1565 1569 1573 1577 1580 1583 1585
1453 1451 1440 1444 1445 1448 1444 1451 1442 1443 1424 1432 1419 1425 1418 1417 1423 1423 1426 1426 1437 1449 1462 1472 1480 1486 1493 1499 1504 1509 1515 1520 1525 1531 1538 1545 1551 1558 1563 1569 1572 1576 1579 1582
1461 1465 1436 1442 1453 1450 1444 1436 1451 1443 1459 1447 1417 1412 1419 1419 1421 1423 1426 1425 1431 1440 1450 1463 1471 1479 1486 1492 1498 1505 1512 1514 1518 1526 1531 1537 1543 1550 1558 1563 1567 1571 1575 1577
1470 1467 1454 1448 1454 1452 1451 1445 1441 1431 1435 1443 1439 1413 1391 1402 1414 1419 1423 1430 1432 1432 1439 1452 1461 1470 1478 1486 1493 1499 1505 1510 1515 1521 1526 1530 1536 1543 1550 1556 1561 1565 1569 1572
1474 1469 1464 1446 1444 1443 1441 1437 1437 1441 1443 1430 1425 1417 1387 1393 1404 1416 1419 1424 1431 1435 1437 1445 1453 1461 1470 1478 1484 1490 1496 1503 1506 1512 1518 1522 1529 1535 1541 1547 1554 1559 1563 1566
1478 1476 1473 1462 1451 1442 1443 1441 1439 1431 1425 1428 1436 1424 1401 1399 1405 1411 1416 1421 1425 1430 1434 1438 1445 1453 1462 1470 1476 1482 1488 1494 1500 1506 1511 1517 1521 1527 1532 1538 1545 1551 1556 1559
1490 1477 1467 1454 1455 1448 1444 1443 1439 1437 1433 1429 1424 1417 1403 1411 1415 1419 1420 1419 1423 1425 1428 1433 1438 1444 1452 1461 1467 1474 1480 1487 1494 1500 1505 1509 1513 1518 1525 1531 1537 1544 1549 1553
1490 1483 1473 1463 1459 1460 1453 1443 1446 1447 1434 1435 1419 1419 1409 1408 1416 1419 1421 1423 1424 1426 1429 1430 1432 1437 1443 1452 1459 1466 1474 1480 1486 1491 1496 1499 1505 1512 1518 1524 1530 1536 1541 1546
1486 1489 1481 1474 1464 1460 1462 1458 1457 1452 1447 1445 1442 1436 1421 1425 1428 1423 1424 1428 1429 1433 1434 1436 1437 1439 1441 1447 1452 1459 1465 1472 1479 1483 1487 1493 1499 1505 1510 1516 1522 1528 1533 1539
1498 1490 1489 1479 1466 1459 1462 1457 1453 1449 1446 1446 1445 1436 1434 1435 1435 1432 1429 1434 1439 1440 1440 1440 1439 1439 1439 1443 1447 1452 1457 1467 1473 1478 1483 1488 1492 1497 1502 1509 1515 1520 1526 1532
1491 1495 1495 1485 1467 1476 1443 1439 1439 1442 1442 1438 1441 1439 1435 1436 1440 1434 1431 1437 1441 1441 1440 1440 1440 1439 1439 1440 1442 1447 1453 1458 1464 1470 1476 1481 1486 1490 1496 1502 1507 1513 1519 1524
1479 1486 1493 1487 1469 1455 1444 1439 1453 1463 1454 1446 1439 1434 1436 1434 1436 1429 1431 1435 1438 1440 1439 1438 1437 1436 1437 1436 1437 1441 1446 1450 1456 1460 1465 1470 1477 1483 1489 1494 1499 1505 1512 1518
1469 1472 1489 1480 1474 1466 1446 1452 1463 1464 1453 1448 1440 1432 1431 1435 1430 1425 1433 1432 1436 1436 1434 1432 1430 1430 1430 1430 1432 1434 1437 1443 1445 1449 1453 1463 1471 1476 1481 1486 1492 1498 1505 1511
1476 1484 1477 1477 1474 1462 1447 1457 1461 1461 1452 1456 1444 1425 1427 1430 1433 1432 1436 1437 1435 1433 1430 1428 1424 1422 1420 1422 1425 1426 1429 1432 1436 1449 1455 1460 1465 1470 1476 1482 1488 1492 1497 1504
1474 1478 1474 1474 1470 1468 1458 1460 1463 1458 1460 1461 1456 1450 1439 1437 1439 1440 1440 1436 1433 1431 1429 1424 1421 1418 1412 1413 1416 1419 1422 1427 1436 1442 1447 1453 1459 1465 1472 1476 1481 1486 1491 1496
1484 1481 1475 1467 1460 1464 1469 1469 1466 1466 1464 1463 1462 1455 1449 1444 1444 1442 1441 1437 1432 1431 1429 1423 1420 1414 1407 1407 1413 1416 1419 1423 1430 1436 1441 1447 1453 1459 1466 1469 1474 1480 1484 1490
1491 1489 1486 1479 1467 1467 1465 1466 1464 1464 1462 1459 1457 1454 1451 1447 1445 1445 1445 1439 1433 1431 1428 1422 1419 1413 1408 1406 1406 1410 1418 1422 1425 1430 1436 1442 1446 1452 1459 1464 1469 1474 1479 1482
1495 1491 1487 1481 1479 1476 1464 1463 1459 1454 1454 1452 1453 1452 1450 1447 1447 1448 1445 1439 1435 1433 1429 1424 1420 1415 1410 1409 1409 1409 1412 1417 1423 1426 1432 1437 1441 1447 1453 1458 1462 1467 1472 1476
1492 1491 1487 1479 1478 1475 1467 1460 1450 1445 1446 1447 1449 1448 1449 1447 1446 1445 1442 1439 1438 1437 1432 1428 1424 1418 1413 1410 1408 1409 1412 1414 1420 1424 1429 1433 1436 1441 1448 1453 1455 1461 1465 1469